Location: Newark
(52.4787°S, 179.0532°W)
Time: 15:11:59
(UTC+00:00)

Transit 2A Rocket - Pass Details

Date: 21 November 2019
Orbit: 594 x 909 km, 66.7° (Epoch: 08 December)

Event Time Altitude Azimuth Distance (km) Brightness Sun altitude
Rises 21:58:44 0° 312° (NW) 3,362 8.3 51.8°
Reaches altitude 10° 22:01:08 10° 309° (NW) 2,476 7.8 52.1°
Maximum altitude 22:06:54 67° 226° (SW) 969 6.1 52.6°
Drops below altitude 10° 22:13:02 10° 143° (SE) 2,621 7.8 53.2°
Sets 22:15:38 0° 139° (SE) 3,574 8.4 53.5°
